Total_Precipitation_Accumulation
1.59 1.73 1.75 1.75 1.68 1.82 1.88 1.87 1.90 1.90 1.89 1.97 2.09 2.25 2.30 2.40 2.52 2.65 2.45 2.56 2.71 2.87 2.74 2.75 2.80 2.89 2.87 2.78 2.88 2.95 3.16 3.47 3.34 2.74 2.60 2.57 2.44 2.19 2.17 2.06 2.01 2.15 2.18
1.58 1.75 1.83 1.99 1.93 1.87 1.88 1.94 2.01 2.11 2.20 2.15 2.21 2.27 2.19 2.28 2.54 2.59 2.53 2.60 2.65 2.68 2.85 3.13 3.04 3.11 3.05 2.88 3.02 2.95 3.07 3.46 3.32 2.94 2.88 2.88 2.81 2.55 2.40 2.19 1.96 1.98 2.14
1.73 1.86 2.00 2.10 2.01 1.92 2.05 2.14 2.16 2.31 2.47 2.51 2.51 2.37 2.32 2.34 2.45 2.54 2.64 2.66 2.66 2.70 2.84 2.91 2.97 3.23 3.11 3.02 2.92 2.89 3.02 3.24 3.41 3.09 2.95 3.15 3.00 2.70 2.57 2.26 2.04 2.16 1.95
1.88 2.10 2.20 2.26 2.17 2.11 2.22 2.32 2.34 2.41 2.56 2.70 2.66 2.61 2.55 2.44 2.30 2.29 2.36 2.45 2.59 2.73 2.76 2.69 2.78 3.03 3.13 3.15 2.92 2.93 3.12 3.25 3.32 3.23 3.06 3.17 3.20 3.09 2.92 2.64 2.51 2.35 2.16
2.09 2.25 2.28 2.39 2.38 2.39 2.51 2.53 2.46 2.49 2.52 2.70 2.77 2.81 2.76 2.54 2.25 2.32 2.48 2.46 2.64 2.63 2.53 2.42 2.42 2.68 2.93 3.03 2.75 2.82 3.04 3.05 3.06 3.10 3.06 3.14 3.20 3.36 3.18 2.85 2.60 2.44 2.19
2.26 2.53 2.58 2.63 2.61 2.67 2.81 2.86 2.79 2.79 2.93 2.95 2.83 2.76 2.67 2.26 2.43 2.50 2.50 2.52 2.67 2.65 2.55 2.44 2.32 2.28 2.31 2.49 2.62 2.75 2.93 2.92 2.94 3.11 3.25 3.31 3.31 3.38 3.39 3.15 2.85 2.60 2.34
2.30 2.53 2.71 2.81 2.86 2.95 3.02 3.03 2.98 3.09 3.29 3.26 3.09 2.88 2.71 2.65 2.63 2.41 2.37 2.24 2.29 2.37 2.48 2.45 2.13 1.93 2.06 1.99 2.22 2.39 2.47 2.57 2.69 2.94 3.10 3.15 3.28 3.43 3.55 3.26 3.07 2.86 2.56
2.57 2.65 2.77 2.87 2.93 3.00 3.08 2.97 3.00 3.16 3.22 3.22 3.10 2.94 2.79 2.70 2.61 2.33 2.31 2.08 2.06 2.11 2.20 2.25 2.19 2.03 2.01 2.14 2.14 2.05 1.97 2.04 2.25 2.32 2.45 2.73 2.96 3.20 3.43 3.34 3.28 2.97 2.61
2.74 2.73 2.71 2.83 2.96 3.01 3.02 3.02 3.08 3.13 3.01 2.87 2.77 2.74 2.70 2.74 2.77 2.44 2.27 2.01 2.04 2.01 2.02 2.04 2.07 1.98 2.18 2.16 2.07 2.01 1.99 1.98 2.08 2.21 2.23 2.38 2.64 2.81 2.98 3.11 3.10 2.96 2.67
2.74 2.81 2.81 2.91 2.98 3.01 3.10 3.15 3.09 3.03 2.93 2.82 2.64 2.61 2.60 2.58 2.66 2.31 2.17 1.97 1.98 1.97 2.02 2.02 2.05 1.98 2.05 1.95 1.85 1.94 1.91 1.92 2.03 2.04 2.06 2.08 2.15 2.48 2.86 2.70 2.75 2.83 2.60
2.62 2.84 3.04 3.16 3.17 3.16 3.19 3.08 3.00 2.92 2.93 2.87 2.72 2.59 2.54 2.47 2.52 2.26 2.09 1.83 1.94 2.16 2.15 2.06 2.07 2.08 1.82 1.77 1.71 1.72 1.78 1.86 1.98 1.86 1.77 1.79 1.91 2.09 2.35 2.43 2.43 2.45 2.42
2.40 2.61 2.77 2.94 3.04 3.03 3.08 3.02 3.07 3.00 2.86 2.73 2.59 2.43 2.35 2.35 2.26 2.17 1.99 1.82 1.89 2.04 2.13 2.18 2.21 2.12 1.78 1.65 1.52 1.50 1.61 1.61 1.64 1.69 1.67 1.66 1.74 1.87 2.06 2.22 2.30 2.37 2.31
2.20 2.40 2.62 2.79 3.05 3.17 3.21 3.15 3.03 2.93 2.73 2.52 2.37 2.21 2.21 2.27 2.27 2.11 1.89 1.80 1.86 1.89 1.97 2.14 2.03 1.92 1.72 1.49 1.43 1.44 1.48 1.41 1.50 1.64 1.68 1.65 1.65 1.74 2.01 2.35 2.53 2.63 2.56
2.20 2.30 2.46 2.60 2.77 3.03 3.11 3.04 2.87 2.62 2.45 2.38 2.30 2.25 2.28 2.34 2.23 2.05 1.82 1.69 1.77 1.83 1.87 1.95 1.94 1.89 1.80 1.65 1.55 1.46 1.38 1.42 1.51 1.57 1.70 1.84 1.95 2.03 2.14 2.27 2.45 2.53 2.56
2.06 2.09 2.13 2.32 2.51 2.69 2.73 2.65 2.49 2.36 2.40 2.41 2.36 2.32 2.23 2.14 2.21 2.14 1.89 1.77 1.77 1.84 1.84 1.85 1.87 1.96 1.98 1.93 1.85 1.76 1.71 1.71 1.72 1.70 1.82 1.95 1.96 1.96 2.00 2.13 2.30 2.35 2.25
2.09 2.05 1.98 1.93 2.03 2.31 2.59 2.66 2.53 2.30 2.30 2.21 2.11 2.06 2.01 1.93 1.97 1.96 1.86 1.78 1.84 1.92 1.79 1.83 1.98 2.05 2.07 2.08 2.08 1.93 1.82 1.71 1.67 1.75 1.80 1.87 1.94 1.96 1.98 2.09 2.24 2.26 2.12
2.10 2.06 1.95 1.85 1.88 2.06 2.38 2.67 2.74 2.50 2.25 2.10 1.86 1.69 1.63 1.61 1.63 1.69 1.74 1.70 1.69 1.68 1.56 1.68 1.89 1.94 1.97 2.00 2.00 1.89 1.82 1.77 1.77 1.85 1.93 1.97 2.02 2.01 2.01 2.06 2.17 2.22 2.14
2.01 2.02 1.89 1.79 1.87 1.99 2.20 2.49 2.68 2.63 2.41 2.11 1.81 1.60 1.53 1.48 1.49 1.56 1.61 1.53 1.45 1.39 1.33 1.47 1.63 1.78 1.89 2.00 2.06 2.05 1.98 1.93 1.90 1.88 1.96 2.04 2.12 2.17 2.13 2.07 2.12 2.20 2.18
1.95 1.97 1.94 1.87 1.87 1.87 2.05 2.35 2.54 2.58 2.45 2.25 1.93 1.64 1.51 1.43 1.43 1.55 1.51 1.35 1.31 1.30 1.29 1.32 1.42 1.63 1.87 2.02 2.13 2.21 2.21 2.13 1.98 1.94 1.98 2.07 2.12 2.22 2.19 2.09 2.11 2.25 2.24
1.74 1.79 1.70 1.68 1.73 1.70 1.75 1.92 2.21 2.39 2.34 2.27 2.02 1.59 1.34 1.27 1.29 1.50 1.58 1.57 1.51 1.37 1.30 1.33 1.41 1.54 1.74 1.97 2.05 2.04 2.07 2.01 1.98 1.97 1.95 2.02 2.10 2.15 2.12 2.09 2.11 2.22 2.18
1.51 1.56 1.53 1.40 1.51 1.59 1.67 1.81 2.08 2.29 2.24 2.15 1.97 1.67 1.47 1.34 1.38 1.43 1.54 1.64 1.65 1.57 1.48 1.41 1.40 1.46 1.60 1.75 1.83 1.87 1.92 1.91 1.88 1.90 1.91 1.93 2.01 2.09 2.15 2.14 2.10 2.14 2.18
1.30 1.33 1.33 1.27 1.36 1.46 1.56 1.79 2.05 2.17 2.10 2.00 1.88 1.70 1.61 1.53 1.53 1.57 1.58 1.56 1.50 1.43 1.38 1.41 1.42 1.48 1.56 1.62 1.68 1.81 1.88 1.88 1.83 1.81 1.84 1.86 1.92 1.95 2.04 2.11 2.07 2.11 2.16
1.21 1.22 1.24 1.23 1.28 1.39 1.53 1.70 1.85 1.89 1.87 1.87 1.72 1.56 1.55 1.59 1.57 1.57 1.59 1.54 1.44 1.36 1.35 1.42 1.45 1.48 1.52 1.52 1.54 1.63 1.71 1.71 1.73 1.73 1.81 1.90 1.92 1.95 2.02 2.08 2.10 2.18 2.20
1.27 1.33 1.37 1.40 1.44 1.51 1.59 1.69 1.73 1.70 1.64 1.62 1.58 1.56 1.58 1.60 1.57 1.56 1.54 1.53 1.52 1.51 1.47 1.41 1.38 1.37 1.41 1.44 1.45 1.45 1.51 1.53 1.51 1.54 1.61 1.73 1.83 1.86 1.91 1.98 2.02 2.06 2.12
1.20 1.32 1.38 1.45 1.50 1.56 1.63 1.66 1.66 1.62 1.51 1.47 1.46 1.49 1.48 1.45 1.52 1.54 1.51 1.50 1.48 1.43 1.31 1.27 1.25 1.21 1.18 1.18 1.18 1.19 1.33 1.33 1.26 1.27 1.36 1.53 1.61 1.66 1.72 1.82 1.92 2.00 2.05
1.10 1.19 1.32 1.35 1.39 1.48 1.58 1.64 1.61 1.55 1.48 1.43 1.43 1.46 1.44 1.41 1.41 1.42 1.40 1.40 1.39 1.35 1.33 1.30 1.20 1.16 1.15 1.13 1.13 1.18 1.19 1.11 1.08 1.12 1.12 1.23 1.42 1.52 1.61 1.71 1.78 1.95 2.02